Regional Weather Roundup
Issued by NWS Burlington, VT

Home | Current Version | Previous Version | Text Only | Print | Product List | Glossary On
Versions: 1 2 3 4 5 6 7 8 9 10 11 12 13 14 15 16 17 18 19 20 21 22 23 24 25 26 27 28 29 30 31 32 33 34 35 36 37 38 39 40 41 42 43 44 45 46 47 48 49 50
000
ASUS41 KBTV 120130
RWRBTV
VERMONT REGIONAL WEATHER ROUNDUP
NATIONAL WEATHER SERVICE BURLINGTON VT
800 PM EST THU FEB 11 2016

NOTE: "FAIR" INDICATES FEW OR NO CLOUDS BELOW 12,000 FEET WITH NO
SIGNIFICANT WEATHER AND/OR OBSTRUCTIONS TO VISIBILITY.

* THESE REPORTS ARE NOT UNDER NWS QUALITY CONTROL AND/OR DO NOT
  REPORT WEATHER SUCH AS PRECIPITATION AND FOG.

VTZ001>019-120200-
_____VERMONT_____


CITY           SKY/WX    TMP DP  RH WIND       PRES   REMARKS
BURLINGTON     CLOUDY     5  -8  55 NW12G23   30.04R WCI -11
MONTPELIER     LGT SNOW   1  -5  75 NW9G20    29.95R WCI -14
MORRISVILLE    LGT SNOW   2  -8  63 NW10      29.98R WCI -14
ST. JOHNSBURY*   N/A      3 -10  54 MISG      29.93R
LYNDONVILLE*   CLOUDY    -1 -10  66 W7G20     29.91R WCI -15
RUTLAND*       CLOUDY     5  -4  66 W10G20    29.95R WCI -10
SPRINGFIELD    MOCLDY     8  -3  61 W9G21     29.95R WCI  -5
HIGHGATE*      CLOUDY     0  -9  63 W5        30.07R WCI -10
NEWPORT*       CLOUDY    -2 -11  64 W10G16    29.94R WCI -19
BENNINGTON     CLOUDY     8  -6  52 W10G22    29.97R WCI  -6
GALLUP MILLS*    N/A     -2 N/A N/A MISG        N/A
UNION VILLAGE*   N/A      7 N/A N/A MISG        N/A
MT. MANSFIELD*   N/A    -13 N/A N/A NW43        N/A  WCI -48

_____LAKE CHAMPLAIN_____


CITY           SKY/WX    TMP DP  RH WIND       PRES   REMARKS
COLCHESTER RF*   N/A      7  -2  66 NW28        N/A  WCI -16
DIAMOND ISL*     N/A     10  -6  48 NW10        N/A  WCI  -3

$$

NYZ007-026>031-035-052-083-120200-
_____NORTHERN NEW YORK_____


CITY           SKY/WX    TMP DP  RH WIND       PRES   REMARKS
PLATTSBURGH    CLOUDY     2 -12  52 VRB6      30.06R WCI  -9
SARANAC LAKE   CLOUDY    -5 -12  72 W9        29.91R WCI -22
MASSENA        PTCLDY     2  -9  60 W10       30.12R WCI -14
OGDENSBURG*    CLEAR     -6  -9  84 W3        30.12R
STARK FALLS*     N/A     -6 N/A N/A W3          N/A
WATERTOWN      CLEAR     -8 -12  83 CALM      30.13R
ALBANY         PTCLDY    11  -4  51 NW20G26   30.06R WCI  -7
GLENS FALLS    CLOUDY     8 -10  43 W12       30.03R WCI  -7

$$
NHZ002-005-011-120200-
_____NEW HAMPSHIRE_____


CITY           SKY/WX    TMP DP  RH WIND       PRES   REMARKS
LEBANON        LGT SNOW  10   2  69 N9        29.92R WCI  -3
MT WASHINGTON  BLWGSNOW -20 -20 100 W38G45      N/A  VSB 1/16WCI -56
PLYMOUTH       FAIR       7  -4  60 NW12G23   29.91R WCI  -8
WHITEFIELD     MOCLDY     3  -8  60 W12G18    29.88R WCI -13

$$

_____REGIONAL QUEBEC LOCATIONS_____


CITY           SKY/WX    TMP DP  RH WIND       PRES   REMARKS
MONTREAL       FLURRIES   1  -9  60 W18       30.05R WCI -19
QUEBEC CITY    CLOUDY     3  -6  66 W20       29.84R WCI -18
SHERBROOKE     LGT SNOW   0  -8  71 W16G24    29.90R WCI -21

_____REGIONAL ONTARIO LOCATIONS_____


CITY           SKY/WX    TMP DP  RH WIND       PRES   REMARKS
OTTAWA         CLEAR      0  -9  65 W9        30.08R WCI -16

______KEY______
VSB  - VISIBILITY IN MILES
WCI  - WIND CHILL INDEX
HX   - HEAT INDEX
$$
NNNN



USA.gov is the U.S. government's official web portal to all federal, state and local government web resources and services.